This is the latest recevied weather packets stored in our database for station/object K5OLV. If no packets are shown the sender has not sent any weather packets the latest 1 day(s).
| Time | Temp. | Humidity | Pressure | Rain* | Wind** | Luminosity | Snow |
|---|---|---|---|---|---|---|---|
| 1778019171 | 20.56° C | 53% | 1009.7 hPa | 0 mm | 1.34 m/s, 105° | 122 W/m² | - |
| 1778018868 | 20.56° C | 52% | 1009.6 hPa | 0 mm | 1.79 m/s, 113° | 90 W/m² | - |
| 1778018565 | 20.56° C | 51% | 1009.7 hPa | 0 mm | 1.34 m/s, 143° | 95 W/m² | - |
| 1778018264 | 20.56° C | 49% | 1009.6 hPa | 0 mm | 1.34 m/s, 140° | 77 W/m² | - |
| 1778017961 | 20.56° C | 50% | 1009.7 hPa | 0 mm | 1.79 m/s, 182° | 94 W/m² | - |
| 1778017659 | 20.56° C | 50% | 1009.6 hPa | 0 mm | 2.68 m/s, 136° | 80 W/m² | - |
| 1778017356 | 20.56° C | 53% | 1009.4 hPa | 0 mm | 0.89 m/s, 146° | 65 W/m² | - |
| 1778017053 | 20.56° C | 54% | 1009.4 hPa | 0 mm | 2.24 m/s, 143° | 71 W/m² | - |
| 1778016750 | 20° C | 56% | 1009.4 hPa | 0 mm | 1.34 m/s, 113° | 64 W/m² | - |
| 1778016446 | 20° C | 57% | 1009.7 hPa | 0 mm | 2.24 m/s, 99° | 60 W/m² | - |
| 1778016144 | 21.11° C | 56% | 1010.3 hPa | 0 mm | 0.89 m/s, 127° | 47 W/m² | - |
| 1778015841 | 21.11° C | 55% | 1010.3 hPa | 0 mm | 0.89 m/s, 159° | 71 W/m² | - |
| 1778015538 | 21.67° C | 55% | 1010.3 hPa | 0 mm | 0.45 m/s, 125° | 111 W/m² | - |
| 1778015234 | 21.11° C | 54% | 1010.2 hPa | 0 mm | 0.45 m/s, 88° | 148 W/m² | - |
| 1778014931 | 21.11° C | 53% | 1010.6 hPa | 0 mm | 0.89 m/s, 282° | 114 W/m² | - |
| 1778014629 | 21.11° C | 54% | 1010.5 hPa | 0 mm | 0 m/s | 100 W/m² | - |
| 1778014327 | 21.67° C | 53% | 1010.3 hPa | 0 mm | 0.45 m/s, 233° | 70 W/m² | - |
| 1778014023 | 21.11° C | 53% | 1010.2 hPa | 0 mm | 0.45 m/s, 116° | 128 W/m² | - |
| 1778013721 | 21.67° C | 54% | 1009.8 hPa | 0 mm | 0.89 m/s, 85° | 137 W/m² | - |
| 1778013418 | 21.67° C | 53% | 1010.1 hPa | 0 mm | 0.45 m/s, 153° | 151 W/m² | - |
| 1778013114 | 21.67° C | 52% | 1010.2 hPa | 0 mm | 0.45 m/s, 173° | 204 W/m² | - |
| 1778012810 | 21.67° C | 51% | 1010.3 hPa | 0 mm | 0.45 m/s, 271° | 255 W/m² | - |
| 1778012506 | 21.67° C | 51% | 1010.6 hPa | 0 mm | 1.34 m/s, 234° | 214 W/m² | - |
| 1778012203 | 22.22° C | 50% | 1010.7 hPa | 0 mm | 0.89 m/s, 114° | 236 W/m² | - |
| 1778011901 | 22.22° C | 50% | 1010.7 hPa | 0 mm | 2.24 m/s, 194° | 264 W/m² | - |
* Rain latest hour (hover to see other rain measurements)
** Current wind speed in m/s (hover to see current wind gust speed)